This is the latest recevied weather packets stored in our database for station/object K5BOU. If no packets are shown the sender has not sent any weather packets the latest 10 day(s).
| Time | Temp. | Humidity | Pressure | Rain* | Wind** | Luminosity | Snow |
|---|---|---|---|---|---|---|---|
| 1777844076 | 27.22° C | 38% | 1016.7 hPa | 0 mm | - | 535 W/m² | - |
| 1777843772 | 27.22° C | 38% | 1017 hPa | 0 mm | - | 535 W/m² | - |
| 1777843470 | 27.22° C | 40% | 1017.1 hPa | 0 mm | - | 558 W/m² | - |
| 1777843167 | - | - | - | 0 mm | - | - | - |
| 1777842864 | 27.22° C | 43% | 1017.2 hPa | 0 mm | - | 684 W/m² | - |
| 1777842559 | 27.22° C | 43% | 1017.2 hPa | 0 mm | - | 684 W/m² | - |
| 1777842257 | 27.22° C | 43% | 1017.3 hPa | 0 mm | - | 684 W/m² | - |
| 1777841957 | 27.22° C | 43% | 1017.4 hPa | 0 mm | - | 684 W/m² | - |
| 1777841654 | 27.22° C | 43% | 1017.4 hPa | 0 mm | - | 684 W/m² | - |
| 1777841350 | 27.22° C | 43% | 1017.4 hPa | 0 mm | - | 684 W/m² | - |
| 1777841048 | 27.22° C | 43% | 1017.4 hPa | 0 mm | - | 684 W/m² | - |
| 1777840745 | 27.22° C | 43% | 1017.3 hPa | 0 mm | - | 684 W/m² | - |
| 1777840442 | 27.22° C | 43% | 1017.5 hPa | 0 mm | - | 684 W/m² | - |
| 1777840138 | 27.22° C | 43% | 1017.7 hPa | 0 mm | - | 684 W/m² | - |
| 1777839837 | 27.22° C | 43% | 1017.7 hPa | 0 mm | - | 684 W/m² | - |
| 1777839535 | 27.22° C | 43% | 1017.9 hPa | 0 mm | - | 684 W/m² | - |
| 1777839232 | 27.78° C | 41% | 1017.9 hPa | 0 mm | - | 702 W/m² | - |
| 1777838929 | 27.78° C | 41% | 1018 hPa | 0 mm | - | 702 W/m² | - |
| 1777838625 | 27.22° C | 41% | 1018.2 hPa | 0 mm | - | 704 W/m² | - |
| 1777838322 | 27.22° C | 41% | 1018.2 hPa | 0 mm | - | 704 W/m² | - |
| 1777838018 | 26.67° C | 47% | 1018.5 hPa | 0 mm | - | 692 W/m² | - |
| 1777837716 | 26.67° C | 43% | 1018.3 hPa | 0 mm | - | 713 W/m² | - |
| 1777837412 | 26.67° C | 43% | 1018.5 hPa | 0 mm | - | 713 W/m² | - |
| 1777837108 | 26.67° C | 45% | 1018.4 hPa | 0 mm | - | 719 W/m² | - |
| 1777836804 | 26.67° C | 45% | 1018.4 hPa | 0 mm | - | 722 W/m² | - |
* Rain latest hour (hover to see other rain measurements)
** Current wind speed in m/s (hover to see current wind gust speed)